ラインムート第2彗星

44P/Reinmuth 2 (2008)

English version
Home page
Total 6,336 html files since Dec. 4, 1995
Updated on April 26, 2008

---------------------------------------------------------------------

・ プロフィール

・ 写真集

・ 軌道要素

The following orbital elements are taken from MPC 54167:

Epoch 2008 Feb. 24.0 TT = JDT 2454520.5
T 2008 Feb. 18.2768 TT                                  MPC
q   2.106390             (2000.0)            P               Q
n   0.1393600      Peri.   58.0689      +0.9601006      +0.2617010
a   3.684489       Node   286.6004      -0.2784828      +0.8624554
e   0.428309       Incl.    5.9047      -0.0255765      +0.4332242
P   7.07
From 443 observations 1980-2003, mean residual 0".7.  Nongravitational
     parameters A1 = -0.10, A2 = -0.0194.

・ 星図

・ 光度変化

        m1 = 9.0 + 5 logΔ + 15.0 log r

---------------------------------------------------------------------

軌道要素はMPCのEphemerides and Orbital Elementsに掲載されたものです。
星図は StellaNavigator Ver.2.0 for Windows (アストロアーツ 編著 / アスキー出版局刊) で作成したものです。
光度グラフはComet for Windowsで作成したものです。

---------------------------------------------------------------------

Copyright(C) 1995-2008 Seiichi Yoshida (comet@aerith.net). All rights reserved.